This demonstration page uses our WeatherBlox Daily Observations layout. Learn more.

Left ArrowRight Arrow

39.92423, -83.80882

Hourly Observations for January 23, 2022

Temp ( °F °C ) Dew Point ( °F °C ) Humidity (%) Winds ( mph kmh ) Pressure ( in mb ) Visibility ( mi km ) Precip ( " mm )
12:56 am 00:56 Mostly Clear 24 -4.4 16 -8.9 71 71 SW 14 22 30.10 1019 10 16 0.00 0.00
1:56 am 01:56 Cloudy 25 -3.9 17 -8.3 72 72 WSW 13 20 30.07 1018 10 16 0.00 0.00
2:56 am 02:56 Cloudy 26 -3.3 17 -8.3 69 69 SW 13 20 30.05 1018 10 16 0.00 0.00
3:56 am 03:56 Cloudy 26 -3.3 17 -8.3 69 69 SW 12 19 30.02 1017 10 16 0.00 0.00
4:56 am 04:56 Mostly Cloudy 25 -3.9 18 -7.8 75 75 SSW 9 15 29.99 1016 10 16 0.00 0.00
5:56 am 05:56 Cloudy 25 -3.9 18 -7.8 75 75 SSW 10 17 29.96 1015 10 16 0.00 0.00
6:56 am 06:56 Cloudy 25 -3.9 17 -8.3 72 72 SSW 14 22 29.94 1014 10 16 0.00 0.00
7:56 am 07:56 Cloudy 26 -3.3 18 -7.8 71 71 SSW 13 20 29.90 1013 10 16 0.00 0.00
8:56 am 08:56 Cloudy with Light Snow 27 -2.8 19 -7.2 72 72 SSW 13 20 29.84 1011 9 14 0.00 0.00
9:56 am 09:56 Cloudy with Light Snow 29 -1.7 21 -6.1 72 72 SW 16 26 29.82 1010 5 8 0.00 0.00
10:08 am 10:08 Windy with Snow Likely 28 -2 23 -5 80 80 SW 22 35 29.83 1010 2 3 0.00 0.00
10:19 am 10:19 Cloudy with Light Snow 28 -2 25 -4 86 86 SW 15 24 29.84 1011 5 8 0.00 0.00
10:42 am 10:42 Windy with Snow Likely 28 -2 25 -4 86 86 SW 20 31 29.83 1010 4 6 0.00 0.00
10:56 am 10:56 Cloudy with Light Snow 28 -2.2 24 -4.4 85 85 SW 17 28 29.81 1010 7 11 0.00 0.00
11:08 am 11:08 Windy with Snow Likely 28 -2 27 -3 93 93 SW 20 31 29.83 1010 2 3 0.00 0.00
11:23 am 11:23 Cloudy with Light Snow 28 -2 27 -3 93 93 SW 16 26 29.83 1010 1 2 0.00 0.00
11:27 am 11:27 Cloudy with Light Snow 28 -2 27 -3 93 93 SW 15 24 29.83 1010 1 2 0.00 0.00
11:32 am 11:32 Cloudy with Light Snow 28 -2 28 -2 100 100 SW 15 24 29.83 1010 1 1 0.00 0.00
11:38 am 11:38 Cloudy with Light Snow 28 -2 28 -2 100 100 SW 17 28 29.83 1010 1 2 0.00 0.00
11:56 am 11:56 Cloudy with Light Snow 28 -2.2 28 -2.2 100 100 SW 17 28 29.81 1009 3 5 0.00 0.00
11:58 am 11:58 Cloudy with Light Snow 28 -2 28 -2 100 100 SW 18 30 29.82 1010 3 4 0.00 0.00
12:10 pm 12:10 Cloudy with Light Snow 28 -2 28 -2 100 100 SW 15 24 29.82 1010 2 2 0.00 0.00
12:30 pm 12:30 Cloudy with Light Snow 28 -2 28 -2 100 100 SW 17 28 29.80 1009 2 3 0.00 0.00
12:42 pm 12:42 Cloudy with Light Snow 28 -2 28 -2 100 100 SW 15 24 29.80 1009 6 10 0.00 0.00
12:56 pm 12:56 Cloudy with Light Snow 29 -1.7 29 -1.7 100 100 SW 14 22 29.78 1008 8 13 0.00 0.00
1:56 pm 13:56 Cloudy with Light Snow 30 -1.1 30 -1.1 100 100 WSW 15 24 29.77 1008 8 13 0.00 0.00
2:20 pm 14:20 Cloudy with Light Snow 30 -1 30 -1 100 100 WSW 12 19 29.79 1009 8 13 0.00 0.00
2:44 pm 14:44 Cloudy with Light Snow 30 -1 30 -1 100 100 W 15 24 29.80 1009 7 11 0.00 0.00
2:56 pm 14:56 Cloudy with Light Snow 28 -2.2 28 -2.2 100 100 NW 16 26 29.81 1009 4 6 0.00 0.00
3:03 pm 15:03 Windy with Snow Likely 27 -3 27 -3 100 100 NNW 20 31 29.84 1010 3 5 0.00 0.00
3:14 pm 15:14 Windy with Snow Likely 27 -3 27 -3 100 100 NNW 21 33 29.85 1011 4 6 0.00 0.00
3:53 pm 15:53 Cloudy 25 -4 25 -4 100 100 NNW 16 26 29.88 1012 9 14 0.00 0.00
3:56 pm 15:56 Cloudy 24 -4.4 24 -4.4 100 100 NNW 18 30 29.86 1011 10 16 0.00 0.00
4:56 pm 16:56 Cloudy with Light Snow 23 -5 21 -6.1 92 92 NW 15 24 29.91 1013 9 14 0.00 0.00
5:56 pm 17:56 Cloudy with Light Snow 22 -5.6 19 -7.2 89 89 NW 14 22 29.94 1014 9 14 0.00 0.00
6:04 pm 18:04 Cloudy with Light Snow 21 -6 19 -7 93 93 NW 10 17 29.98 1015 7 11 0.00 0.00
6:56 pm 18:56 Cloudy with Light Snow 21 -6.1 18 -7.8 88 88 NW 12 19 29.98 1015 8 13 0.00 0.00
7:56 pm 19:56 Cloudy with Light Snow 20 -6.7 17 -8.3 89 89 NW 8 13 30.01 1016 9 14 0.00 0.00
8:09 pm 20:09 Cloudy with Light Snow 19 -7 16 -9 86 86 NNW 7 11 30.05 1017 8 13 0.00 0.00
8:56 pm 20:56 Cloudy with Light Snow 20 -6.7 17 -8.3 89 89 NNW 8 13 30.01 1016 8 13 0.00 0.00
9:14 pm 21:14 Cloudy with Light Snow 19 -7 18 -8 93 93 NNW 8 13 30.06 1018 8 13 0.00 0.00
9:30 pm 21:30 Cloudy with Light Snow 19 -7 18 -8 93 93 NNW 9 15 30.06 1018 5 8 0.00 0.00
9:56 pm 21:56 Cloudy with Light Snow 18 -7.8 16 -8.9 92 92 NNW 7 11 30.01 1016 9 14 0.00 0.00
10:56 pm 22:56 Cloudy with Light Snow 18 -7.8 16 -8.9 92 92 Calm 30.00 1016 7 11 0.00 0.00
11:56 pm 23:56 Cloudy 17 -8.3 17 -8.3 100 100 Calm 30.00 1016 9 14 0.00 0.00

Powered by AerisWeather